TimeEST,TemperatureF,Dew PointF,Humidity,Sea Level PressureIn,VisibilityMPH,Wind Direction,Wind SpeedMPH,Gust SpeedMPH,PrecipitationIn,Events,Conditions,WindDirDegrees,DateUTC
12:53 AM,64.9,62.1,90,29.90,10.0,WSW,9.2,-,N/A,,Scattered Clouds,240,2013-02-27 05:53:00
1:53 AM,64.0,62.1,93,29.90,10.0,WSW,6.9,-,N/A,,Mostly Cloudy,240,2013-02-27 06:53:00
2:53 AM,64.0,62.1,93,29.89,10.0,WSW,5.8,-,N/A,,Overcast,240,2013-02-27 07:53:00
3:53 AM,63.0,62.1,97,29.89,10.0,WSW,3.5,-,N/A,,Mostly Cloudy,250,2013-02-27 08:53:00
4:53 AM,62.1,61.0,96,29.91,10.0,West,3.5,-,N/A,,Mostly Cloudy,270,2013-02-27 09:53:00
5:53 AM,62.1,60.1,93,29.91,10.0,West,4.6,-,N/A,,Mostly Cloudy,280,2013-02-27 10:53:00
6:53 AM,62.1,57.9,86,29.92,10.0,West,4.6,-,N/A,,Mostly Cloudy,280,2013-02-27 11:53:00
7:53 AM,64.0,57.0,78,29.94,10.0,NW,6.9,-,N/A,,Mostly Cloudy,310,2013-02-27 12:53:00
8:53 AM,64.9,55.9,73,29.96,10.0,NNW,12.7,-,N/A,,Mostly Cloudy,330,2013-02-27 13:53:00
9:53 AM,64.9,55.0,70,29.98,10.0,WNW,8.1,-,N/A,,Mostly Cloudy,300,2013-02-27 14:53:00
10:53 AM,68.0,55.0,63,29.99,10.0,WNW,10.4,-,N/A,,Mostly Cloudy,300,2013-02-27 15:53:00
11:53 AM,68.0,54.0,61,29.97,10.0,WNW,5.8,-,N/A,,Mostly Cloudy,300,2013-02-27 16:53:00
12:53 PM,71.1,54.0,55,29.95,10.0,WNW,6.9,-,N/A,,Scattered Clouds,300,2013-02-27 17:53:00
1:53 PM,72.0,52.0,49,29.94,10.0,West,8.1,-,N/A,,Mostly Cloudy,270,2013-02-27 18:53:00
2:53 PM,73.9,53.1,48,29.91,10.0,West,8.1,-,N/A,,Mostly Cloudy,270,2013-02-27 19:53:00
3:53 PM,73.9,51.1,45,29.90,10.0,WSW,8.1,-,N/A,,Mostly Cloudy,240,2013-02-27 20:53:00
4:53 PM,75.9,52.0,43,29.90,10.0,West,9.2,-,N/A,,Mostly Cloudy,280,2013-02-27 21:53:00
5:53 PM,73.9,51.1,45,29.91,10.0,WNW,11.5,-,N/A,,Mostly Cloudy,290,2013-02-27 22:53:00
6:53 PM,71.1,50.0,47,29.92,10.0,WNW,9.2,-,N/A,,Mostly Cloudy,290,2013-02-27 23:53:00
7:53 PM,66.9,50.0,54,29.94,10.0,West,10.4,-,N/A,,Mostly Cloudy,280,2013-02-28 00:53:00
8:53 PM,64.0,50.0,60,29.95,10.0,West,9.2,-,N/A,,Mostly Cloudy,280,2013-02-28 01:53:00
9:53 PM,60.1,48.9,67,29.97,10.0,West,11.5,-,N/A,,Mostly Cloudy,270,2013-02-28 02:53:00
10:53 PM,57.9,48.9,72,29.97,10.0,West,8.1,-,N/A,,Partly Cloudy,270,2013-02-28 03:53:00
11:53 PM,57.0,48.9,74,29.97,10.0,WNW,6.9,-,N/A,,Mostly Cloudy,290,2013-02-28 04:53:00